Location: Unspecified
(35.7250°N, 0.0000°E)
Time: 17:09:55
(UTC+00:00)

Tiros 1 - Pass Details

Date: 29 June 2019
Orbit: 630 x 664 km, 48.4° (Epoch: 18 October)

Event Time Altitude Azimuth Distance (km) Brightness Sun altitude
Rises 23:27:27 0° 301° (WNW) 2,956 11.1 -30.5°
Reaches altitude 10° 23:30:33 10° 322° (NW) 2,038 10.4 -30.6°
Maximum altitude 23:33:37 17° 3° (N) 1,613 9.9 -30.6°
Drops below altitude 10° 23:36:41 10° 45° (NE) 2,023 10.1 -30.7°
Sets 23:39:45 0° 65° (ENE) 2,925 10.7 -30.8°
